Overview Statistics Trail Chart Weather Telemetry Raw packets
 

This is the latest recevied weather packets stored in our database for station/object 4S6DRJ-13. If no packets are shown the sender has not sent any weather packets the latest 10 day(s).

<< 364 365 366 367 368 369 370 >>
Time Temp. Humidity Pressure Rain* Wind** Luminosity Snow
1787918069 29.44° C 78% 1008.1 hPa 0 mm 1.79 m/s, 205° 96 W/m² -
1787918008 29.44° C 79% 1007.9 hPa 0 mm 2.68 m/s, 2° 107 W/m² -
1787917947 29.44° C 79% 1008.2 hPa 0 mm 1.79 m/s, 200° 114 W/m² -
1787917886 29.44° C 79% 1008 hPa 0 mm 3.13 m/s, 259° 126 W/m² -
1787917825 29.44° C 79% 1007.9 hPa 0 mm 2.24 m/s, 290° 126 W/m² -
1787917764 29.44° C 79% 1007.9 hPa 0 mm 1.34 m/s, 283° 144 W/m² -
1787917703 29.44° C 79% 1008 hPa 0 mm 1.79 m/s, 197° 103 W/m² -
1787917642 29.44° C 79% 1008 hPa 0 mm 2.24 m/s, 226° 100 W/m² -
1787917581 29.44° C 79% 1008.1 hPa 0 mm 1.79 m/s, 241° 108 W/m² -
1787917520 29.44° C 78% 1008.1 hPa 0 mm 1.79 m/s, 248° 110 W/m² -
1787917459 29.44° C 78% 1007.9 hPa 0 mm 1.34 m/s, 227° 103 W/m² -
1787917398 29.44° C 78% 1008.1 hPa 0 mm 2.68 m/s, 334° 104 W/m² -
1787917337 30° C 77% 1008.1 hPa 0 mm 1.79 m/s, 176° 102 W/m² -
1787917276 30° C 77% 1008.2 hPa 0 mm 2.24 m/s, 337° 98 W/m² -
1787917215 30° C 76% 1008.2 hPa 0 mm 2.68 m/s, 226° 122 W/m² -
1787917154 30.56° C 76% 1008 hPa 0 mm 1.79 m/s, 235° 159 W/m² -
1787917100 30.56° C 75% 1008 hPa 0 mm 3.13 m/s, 272° 178 W/m² -
1787917032 30.56° C 76% 1007.9 hPa 0 mm 1.79 m/s, 252° 211 W/m² -
1787916971 30° C 76% 1007.7 hPa 0 mm 0.45 m/s, 189° 236 W/m² -
1787916910 30° C 76% 1007.8 hPa 0 mm 0.89 m/s, 150° 227 W/m² -
1787916849 30° C 76% 1007.8 hPa 0 mm 0.89 m/s, 191° 218 W/m² -
1787916788 30° C 75% 1007.8 hPa 0 mm 1.79 m/s, 210° 217 W/m² -
1787916727 30° C 76% 1007.7 hPa 0 mm 1.34 m/s, 211° 221 W/m² -
1787916666 30° C 76% 1007.7 hPa 0 mm 1.79 m/s, 180° 231 W/m² -
1787916605 30° C 77% 1007.8 hPa 0 mm 1.34 m/s, 275° 246 W/m² -

* Rain latest hour (hover to see other rain measurements)
** Current wind speed in m/s (hover to see current wind gust speed)